Belleville, IL

7:53 PM CDT on May 23, 2017 (GMT -0500)
Scott Air Force Base-Midamerica

Weather History for KBLV - January, 2012

Change the Weather History Date:

Friday, January 20, 2012

  Actual Average Record
Temperature  
Mean Temperature 23 °F -  
Max Temperature 30 °F 39 °F 64 °F (2006)
Min Temperature 16 °F 22 °F -12 °F (1985)
Degree Days  
Heating Degree Days 42    
Moisture  
Dew Point 22 °F    
Average Humidity 85    
Maximum Humidity 100    
Minimum Humidity 68    
Precipitation  
Precipitation 0.02 in - - ()
Sea Level Pressure  
Sea Level Pressure 29.99 in    
Wind  
Wind Speed 8 mph (NE)    
Max Wind Speed 13 mph    
Max Gust Speed -    
Visibility 9 miles    
Events Rain    
Averages and records for this station are not official NWS values.
T = Trace of Precipitation, MM = Missing Value Source: NWS Daily Summary

Daily Weather History Graph

Daily Weather History Graph

Search for Another Location

Airport or City:

Trip Planner

Search our weather history database for the weather conditions in past years. The results will help you decide how hot, cold, wet, or windy it might be!

Date:

Astronomy

Jan. 20, 2012 Rise Set
Actual Time 7:13 AM CST 5:07 PM CST
Civil Twilight 6:44 AM CST 5:36 PM CST
Nautical Twilight 6:12 AM CST 6:08 PM CST
Astronomical Twilight 5:40 AM CST 6:40 PM CST
Moon 4:50 AM CST (1/20) 2:39 PM CST (1/20)
Length of Visible Light 10h 51m
Length of Day
9h 53m
Waning Crescent, 8% of the Moon is Illuminated
Jan 20
Waning Crescent
Jan 23
New
Jan 30
First Quarter
Feb 7
Full
Feb 14
Last Quarter

Hourly Weather History & Observations

Time (CST) Temp. Windchill Dew Point Humidity Pressure Visibility Wind Dir Wind Speed Gust Speed Precip Events Conditions
12:55 AM 17.8 °F 7.5 °F 10.0 °F 72% 30.16 in 10.0 mi NE 8.1 mph - N/A   Clear
1:55 AM 17.1 °F 8.7 °F 9.3 °F 72% 30.18 in 10.0 mi NE 5.8 mph - N/A   Clear
2:55 AM 16.7 °F 4.5 °F 9.9 °F 74% 30.13 in 10.0 mi ENE 10.4 mph - N/A   Clear
3:55 AM 17.6 °F 7.3 °F 11.1 °F 76% 30.16 in 10.0 mi NNE 8.1 mph - N/A   Overcast
4:55 AM 18.0 °F 6.9 °F 10.9 °F 74% 30.14 in 10.0 mi ENE 9.2 mph - N/A   Overcast
5:55 AM 18.5 °F 7.5 °F 10.8 °F 72% 30.13 in 10.0 mi NE 9.2 mph - N/A   Overcast
6:04 AM 17.6 °F 8.2 °F 10.4 °F 73% 30.12 in 10.0 mi ENE 6.9 mph - N/A   Overcast
6:55 AM 19.2 °F 8.4 °F 11.3 °F 71% 30.10 in 10.0 mi ENE 9.2 mph - N/A   Overcast
7:23 AM 19.4 °F 10.4 °F 10.4 °F 68% 30.09 in 10.0 mi ENE 6.9 mph - N/A   Overcast
7:55 AM 19.6 °F 8.9 °F 11.3 °F 70% 30.08 in 10.0 mi East 9.2 mph - N/A   Overcast
7:58 AM 19.4 °F 7.2 °F 12.2 °F 74% 30.07 in 10.0 mi East 11.5 mph - N/A   Overcast
8:55 AM 20.7 °F 10.2 °F 12.7 °F 71% 30.08 in 10.0 mi East 9.2 mph - N/A   Overcast
9:23 AM 21.2 °F 10.9 °F 14.0 °F 74% 30.08 in 10.0 mi East 9.2 mph - N/A   Overcast
9:55 AM 22.8 °F 13.6 °F 14.9 °F 72% 30.07 in 10.0 mi ESE 8.1 mph - N/A   Overcast
10:55 AM 25.0 °F 16.3 °F 17.1 °F 72% 30.05 in 10.0 mi East 8.1 mph - N/A   Overcast
11:08 AM 24.8 °F 16.1 °F 17.6 °F 74% 30.04 in 10.0 mi East 8.1 mph - N/A   Overcast
11:55 AM 26.4 °F 18.0 °F 18.3 °F 71% 30.00 in 10.0 mi East 8.1 mph - N/A   Overcast
12:51 PM 28.4 °F 20.4 °F 19.4 °F 69% 29.96 in 10.0 mi ESE 8.1 mph - N/A   Overcast
12:55 PM 27.9 °F 20.6 °F 19.8 °F 72% 29.96 in 10.0 mi ESE 6.9 mph - N/A   Overcast
1:00 PM 28.4 °F 20.4 °F 21.2 °F 74% 29.95 in 10.0 mi ESE 8.1 mph - N/A   Overcast
1:55 PM 29.8 °F 19.8 °F 21.4 °F 71% 29.89 in 10.0 mi ENE 12.7 mph - N/A   Overcast
2:28 PM 30.2 °F 22.6 °F 21.2 °F 69% 29.89 in 10.0 mi East 8.1 mph - N/A   Overcast
2:55 PM 30.2 °F 22.6 °F 22.3 °F 72% 29.89 in 10.0 mi ENE 8.1 mph - N/A   Overcast
3:55 PM 30.2 °F 21.3 °F 23.0 °F 75% 29.88 in 10.0 mi ENE 10.4 mph - N/A Rain Light Freezing Rain
4:34 PM 30.2 °F 20.8 °F 24.8 °F 80% 29.85 in 10.0 mi ENE 11.5 mph - N/A Rain Light Freezing Rain
4:54 PM 30.2 °F 23.4 °F 24.8 °F 80% 29.88 in 6.0 mi NE 6.9 mph - N/A Rain Light Freezing Rain
4:55 PM 29.3 °F 21.5 °F 25.0 °F 84% 29.88 in 10.0 mi ENE 8.1 mph - 0.00 in Rain Light Freezing Rain
5:13 PM 30.2 °F 24.3 °F 26.6 °F 86% 29.89 in 8.0 mi NE 5.8 mph - N/A   Overcast
5:19 PM 28.4 °F 23.3 °F 26.6 °F 93% 29.89 in 10.0 mi NE 4.6 mph - N/A   Overcast
5:33 PM 28.4 °F 24.6 °F 26.6 °F 93% 29.91 in 10.0 mi NNE 3.5 mph - N/A Rain Light Freezing Rain
5:35 PM 28.4 °F 24.6 °F 26.6 °F 93% 29.88 in 10.0 mi NE 3.5 mph - N/A Rain Light Freezing Rain
5:42 PM 30.2 °F 26.7 °F 26.6 °F 86% 29.91 in 8.0 mi North 3.5 mph - N/A Rain Light Freezing Rain
5:55 PM 29.3 °F 24.3 °F 27.0 °F 91% 29.91 in 7.0 mi NNE 4.6 mph - 0.02 in Rain Light Freezing Rain
6:01 PM 28.4 °F 24.6 °F 26.6 °F 93% 29.91 in 8.0 mi NNE 3.5 mph - N/A   Light Freezing Rain
6:36 PM 28.4 °F 24.6 °F 28.4 °F 100% 29.92 in 10.0 mi North 3.5 mph - N/A   Overcast
6:55 PM 28.6 °F 22.4 °F 27.9 °F 97% 29.92 in 9.0 mi North 5.8 mph - 0.00 in   Overcast
7:01 PM 28.4 °F 22.2 °F 28.4 °F 100% 29.94 in 8.0 mi North 5.8 mph - N/A   Overcast
7:21 PM 28.4 °F 21.2 °F 28.4 °F 100% 29.94 in 7.0 mi North 6.9 mph - N/A   Light Freezing Drizzle
7:32 PM 28.4 °F 22.2 °F 28.4 °F 100% 29.94 in 5.0 mi North 5.8 mph - N/A   Overcast
7:55 PM 28.8 °F 21.7 °F 28.6 °F 99% 29.95 in 4.0 mi NNW 6.9 mph - 0.00 in   Overcast
8:06 PM 28.4 °F 20.4 °F 28.4 °F 100% 29.96 in 5.0 mi NNW 8.1 mph - N/A   Overcast
8:17 PM 28.4 °F 21.2 °F 28.4 °F 100% 29.96 in 5.0 mi North 6.9 mph - N/A   Light Freezing Drizzle
8:55 PM 28.4 °F 21.2 °F 28.2 °F 99% 29.96 in 7.0 mi North 6.9 mph - N/A   Overcast
9:26 PM 28.4 °F 20.4 °F 28.4 °F 100% 29.98 in 8.0 mi NNW 8.1 mph - N/A   Overcast
9:33 PM 28.4 °F 21.2 °F 28.4 °F 100% 29.98 in 10.0 mi NNW 6.9 mph - N/A   Overcast
9:55 PM 28.6 °F 22.4 °F 28.4 °F 99% 29.98 in 10.0 mi NNW 5.8 mph - N/A   Overcast
10:03 PM 28.4 °F 19.1 °F 28.4 °F 100% 29.99 in 10.0 mi NNW 10.4 mph - N/A   Overcast
10:12 PM 28.4 °F 19.1 °F 28.4 °F 100% 29.99 in 10.0 mi NNW 10.4 mph - N/A   Overcast
10:55 PM 27.7 °F 18.8 °F 27.1 °F 98% 30.02 in 10.0 mi NNW 9.2 mph - N/A   Overcast
11:29 PM 24.8 °F 14.0 °F 24.8 °F 100% 30.02 in 10.0 mi North 11.5 mph - N/A   Overcast
11:41 PM 24.8 °F 14.0 °F 24.8 °F 100% 30.02 in 10.0 mi NNW 11.5 mph - N/A   Overcast
11:55 PM 25.0 °F 16.3 °F 23.7 °F 95% 30.03 in 10.0 mi NNW 8.1 mph - N/A   Overcast